Theta_e
340 340 341 340 341 341 342 342 343 342 340 338 341 337 335 336 337 337 335 335 335 334 337 334 333 333 330 333 332 332 333 334 339 341 342 335 336 341 344 344 344 343 342 339 338 338 338 336 335 334 335 337 336 335 333 333 332 331 332 332 330 329 330 329 330 329 329 329 329 328 328 328 328 327 327 327 327 327 327 327 326 326 326 326 326
337 340 338 338 340 340 339 339 340 341 341 339 338 337 337 336 338 338 336 336 335 337 337 333 333 334 329 330 333 331 332 334 337 341 344 342 337 341 343 343 344 344 344 340 338 337 338 336 335 334 333 337 338 337 335 333 332 333 332 330 330 330 330 330 329 330 330 329 328 328 328 327 327 327 327 327 327 327 326 326 326 326 325 326 325
339 338 339 337 336 335 337 339 340 340 341 341 340 338 338 338 336 337 336 334 336 338 337 333 334 335 330 332 333 331 330 333 335 337 339 343 338 338 341 343 343 342 342 342 343 338 337 337 336 334 333 332 339 338 335 334 334 333 332 331 330 330 330 329 329 329 329 328 327 327 328 328 326 326 327 327 326 326 326 325 325 325 325 325 325
338 340 336 335 335 336 340 339 340 342 341 340 341 339 339 337 339 338 337 336 335 337 337 337 333 334 332 332 333 330 332 333 335 335 337 342 340 336 338 340 342 341 341 341 341 342 337 337 337 336 334 332 338 338 337 336 336 334 333 332 331 330 330 329 329 328 329 329 328 327 327 328 327 326 326 326 326 326 325 325 325 325 325 325 325
336 337 336 335 335 335 336 338 339 341 341 341 339 338 339 339 339 338 337 337 337 336 335 338 336 337 337 335 333 332 332 330 332 336 339 340 340 341 336 337 338 339 340 340 341 341 339 337 336 337 336 334 334 338 337 337 337 335 334 333 332 331 330 330 329 328 329 329 328 328 328 328 327 327 327 326 325 325 325 325 325 325 325 325 324
339 338 338 335 335 337 337 337 339 341 340 342 339 339 339 338 338 337 337 335 334 334 335 333 335 335 332 334 334 333 334 331 334 336 336 338 338 337 339 338 337 337 339 340 340 340 339 340 336 337 336 334 334 333 336 336 338 337 335 334 333 331 331 331 329 328 329 328 328 328 327 327 326 326 325 326 325 325 325 324 324 324 323 323 324
340 339 337 338 338 336 337 337 339 339 339 340 339 339 338 338 338 335 337 335 336 336 335 332 334 333 333 332 339 336 332 334 336 335 336 337 338 336 333 334 336 339 339 337 339 338 339 340 337 336 337 335 334 334 331 337 338 337 337 335 334 332 332 331 330 329 328 328 328 328 328 327 326 326 325 324 325 324 325 324 324 324 323 323 323
340 340 340 337 336 336 335 338 338 338 339 340 340 338 339 338 338 337 334 334 335 335 335 334 333 333 336 334 335 334 335 334 334 334 335 337 335 334 333 333 333 335 339 338 336 337 338 340 339 339 335 334 332 332 333 333 332 330 338 337 335 334 333 332 331 330 330 329 329 328 328 327 327 326 325 325 324 324 323 324 324 324 323 323 323
340 340 340 337 336 336 337 338 339 338 339 338 337 338 338 337 335 336 337 334 333 333 334 333 334 333 334 334 332 337 335 335 337 336 335 333 334 334 336 333 334 340 335 337 338 335 337 340 339 339 338 338 333 332 332 333 334 331 336 337 337 335 334 334 332 332 331 330 329 328 329 327 327 327 326 325 325 324 324 323 324 324 323 323 323
340 340 340 337 338 337 338 339 338 339 339 337 336 339 337 335 334 337 336 334 333 333 333 334 335 333 332 332 331 335 338 337 335 338 332 333 335 335 335 336 335 335 336 336 339 337 336 337 338 337 338 338 338 333 333 334 333 333 331 338 337 336 335 336 334 333 332 331 330 329 329 328 327 327 326 326 325 325 324 324 323 323 323 323 323
339 340 339 337 337 336 337 337 336 337 336 334 336 336 336 336 335 335 335 335 334 335 334 334 333 333 332 333 334 333 335 337 337 333 331 331 335 335 337 335 335 335 335 336 337 337 335 335 334 333 334 336 338 337 335 334 335 333 333 336 338 338 337 336 337 334 334 333 332 330 330 329 328 327 327 327 326 325 325 325 324 324 322 323 323
338 339 340 338 337 336 336 336 336 335 335 334 334 335 335 335 335 335 333 334 335 334 335 334 332 330 329 329 331 332 335 334 334 332 331 331 332 333 334 334 333 334 335 334 336 336 336 336 336 335 336 336 338 337 338 338 338 336 335 332 337 339 338 337 337 336 334 334 333 332 331 330 329 328 328 328 327 326 326 325 325 324 323 322 322
337 338 339 336 336 338 337 336 336 335 336 336 336 336 336 335 334 333 332 331 331 334 336 334 329 326 327 329 332 335 335 334 332 330 329 332 333 332 333 332 333 333 334 335 334 335 336 336 336 336 336 336 334 334 334 334 337 337 336 336 336 336 336 337 335 338 336 335 335 333 331 331 330 329 328 328 328 327 326 325 325 324 324 322 322
337 338 336 335 334 334 334 334 336 336 337 337 336 335 335 335 334 331 332 330 330 333 335 332 325 324 321 324 327 331 331 332 331 330 329 330 332 331 332 332 332 333 334 335 333 334 334 336 333 334 334 334 335 334 333 334 336 336 335 336 336 336 334 335 335 334 335 336 335 335 333 332 331 330 330 328 328 328 327 326 326 325 324 324 323
335 335 334 334 334 335 334 334 335 336 335 334 336 336 337 336 334 331 330 331 329 333 334 333 326 327 326 323 319 318 325 328 330 329 329 329 332 331 332 331 331 333 334 335 334 332 332 330 333 334 334 332 332 332 332 333 336 336 337 336 336 337 335 333 332 335 334 335 336 335 335 334 332 331 331 330 329 329 328 327 327 326 325 324 323
328 328 329 334 336 333 332 334 334 337 334 333 334 331 333 334 335 332 332 325 326 330 333 333 331 327 319 320 319 319 315 318 323 326 330 331 329 329 330 331 332 333 334 333 333 332 331 332 334 334 333 333 333 332 332 334 334 333 333 335 335 335 334 335 335 335 332 334 335 334 336 335 334 333 333 332 331 330 330 329 328 327 327 326 325
328 329 329 331 333 335 334 333 333 335 335 330 329 330 329 330 331 331 331 328 326 328 330 333 331 332 325 321 318 316 316 320 321 323 326 327 328 329 331 331 331 331 331 332 334 332 333 332 331 333 333 332 334 332 332 332 333 335 334 332 330 331 334 336 335 335 334 334 335 335 335 335 335 334 334 333 333 332 331 330 329 328 327 327 326
329 329 329 330 331 334 334 330 333 332 333 333 333 331 329 328 329 330 328 330 329 326 327 330 333 331 332 330 326 319 317 321 321 313 323 325 327 329 330 330 331 330 330 330 330 331 331 330 331 331 332 332 332 333 333 332 333 330 330 328 327 325 322 328 336 337 336 335 334 334 333 334 334 335 334 333 333 333 333 332 331 329 329 328 328
330 329 329 329 332 333 335 333 329 331 331 330 329 329 327 328 330 329 328 331 330 325 325 326 330 330 331 332 330 329 328 323 317 318 314 320 325 326 326 331 329 329 329 329 330 330 330 330 330 330 331 332 331 331 330 330 329 328 328 326 324 323 320 319 322 332 335 334 334 334 334 334 334 334 334 334 334 334 334 333 333 332 331 330 330
329 326 327 329 332 332 332 330 332 328 328 326 327 328 329 330 331 331 331 330 329 327 327 330 326 326 328 326 329 329 329 327 325 320 318 314 317 323 327 328 326 327 329 329 330 329 329 329 329 329 329 329 329 330 330 328 326 324 323 323 322 322 319 318 316 316 323 333 335 334 334 334 334 334 335 335 334 333 334 333 333 332 332 332 331
324 326 325 325 326 328 329 327 325 325 324 326 327 327 328 328 328 329 328 328 329 330 328 327 327 326 327 326 326 326 325 325 326 324 319 315 315 317 319 325 325 326 328 328 329 329 327 329 329 330 329 330 331 327 325 324 322 319 320 320 319 319 319 316 313 315 316 328 334 333 333 334 333 333 334 334 335 335 334 333 332 332 332 332 332
327 327 327 325 327 327 327 329 329 326 325 323 323 325 327 325 326 327 328 327 328 328 327 327 328 329 327 326 325 324 323 324 323 322 322 320 315 316 318 318 317 320 325 326 326 327 328 329 329 328 329 325 322 320 317 316 317 317 316 317 317 316 314 312 309 310 313 322 330 332 333 333 334 334 334 335 335 334 334 334 334 333 333 332 331
327 325 325 325 326 328 327 324 327 328 325 324 325 324 326 327 327 327 326 327 326 326 326 326 326 322 322 323 322 322 320 321 320 322 321 317 317 316 317 319 316 317 321 322 321 324 327 329 329 326 322 321 319 317 315 313 314 314 314 315 315 316 315 312 310 309 312 320 326 329 330 329 329 329 330 330 330 332 333 333 333 332 331 331 330
327 327 326 326 326 324 325 326 327 328 325 327 326 323 323 324 324 324 323 324 324 324 324 322 322 323 320 320 320 321 320 319 323 324 322 320 318 317 318 318 315 314 318 320 320 321 321 321 321 320 319 318 317 315 314 312 313 314 311 312 311 311 313 313 311 310 308 315 318 323 326 328 327 326 325 325 325 325 325 324 322 321 323 325 327
324 324 327 328 328 325 324 324 324 325 327 327 325 323 323 324 323 322 323 322 322 323 321 321 321 320 320 318 317 316 317 319 324 322 325 323 320 316 317 320 311 312 314 316 313 317 319 318 319 319 318 318 317 316 315 314 312 312 311 310 310 309 309 309 309 308 306 305 309 313 317 321 324 324 324 322 320 319 318 315 312 311 313 318 321
324 326 326 324 325 326 326 325 325 325 325 325 323 324 325 319 320 321 320 320 321 321 321 321 321 321 321 316 315 316 319 320 316 323 321 321 316 315 314 314 314 311 313 313 314 313 314 317 318 318 318 317 315 314 313 313 313 314 311 308 307 308 308 307 307 307 305 304 304 305 308 311 312 313 314 316 314 312 311 310 309 308 309 311 314
325 326 324 324 325 326 325 325 325 325 325 325 324 323 322 318 319 320 320 321 320 319 319 320 320 320 320 319 318 316 317 316 316 318 321 320 321 318 316 311 312 310 307 307 309 310 310 313 317 317 317 318 318 316 315 313 313 313 310 306 305 307 307 307 307 307 305 305 304 304 304 306 308 309 309 309 309 311 311 311 310 308 307 309 311
325 324 326 326 325 325 324 324 325 326 326 325 323 321 323 322 321 321 318 320 320 320 319 320 321 321 320 319 317 316 317 316 316 317 316 324 320 322 322 319 310 306 309 306 305 305 311 310 313 315 314 314 316 316 318 315 313 315 315 309 307 305 305 305 305 305 306 306 305 303 304 305 306 307 309 310 311 310 310 309 309 308 308 309 309
325 327 325 325 327 326 325 325 324 323 324 324 324 324 322 320 320 320 319 320 320 319 320 319 319 319 319 318 316 317 318 318 318 318 319 318 322 320 320 315 314 310 305 306 306 304 306 309 307 310 313 314 314 316 315 314 315 316 314 311 307 305 306 306 305 306 305 303 303 303 303 304 306 307 309 309 310 309 308 308 308 308 309 309 308
325 326 327 326 326 326 326 326 326 327 326 325 321 324 324 322 322 322 322 322 321 321 320 320 320 321 320 318 318 318 319 319 319 318 317 318 317 316 312 316 314 311 312 305 305 308 307 307 307 306 308 310 312 312 311 311 310 314 312 311 308 305 305 305 304 305 304 303 303 303 304 304 304 305 307 307 307 307 307 308 308 308 308 307 306
325 327 326 326 325 326 326 326 327 327 326 326 325 322 322 322 324 323 322 319 318 317 319 319 319 321 318 318 319 318 320 317 318 318 317 317 316 315 312 315 316 317 310 307 304 308 312 306 308 306 307 309 309 310 311 311 311 312 312 310 308 306 306 304 304 304 304 304 304 304 308 307 305 304 306 306 306 306 306 307 307 306 306 306 305
327 327 326 325 325 325 325 325 327 326 326 327 325 326 325 324 324 324 323 323 320 319 320 321 318 322 317 314 316 317 318 318 316 318 318 316 316 316 317 315 315 316 315 310 305 305 310 308 307 306 308 309 308 307 306 308 309 309 313 309 306 307 305 304 304 303 303 303 303 304 307 306 306 306 304 303 303 303 305 304 304 304 305 304 303
327 326 325 324 324 324 323 323 323 326 327 327 327 327 326 326 324 324 324 323 317 315 316 319 319 318 319 315 315 317 317 316 314 320 316 317 315 318 319 314 313 313 314 310 305 305 309 317 315 308 311 310 308 307 306 307 308 308 310 309 305 305 306 303 303 302 302 302 302 301 301 303 303 303 300 298 300 300 301 302 303 302 302 302 300
325 325 323 326 325 324 322 322 324 323 326 326 327 327 325 325 325 327 326 325 321 321 323 317 317 321 320 316 314 317 316 317 317 310 311 313 312 310 310 312 311 314 313 311 308 306 304 309 313 309 311 311 308 310 313 313 311 310 308 309 309 307 308 305 303 302 302 302 301 301 301 302 301 300 300 300 299 300 301 301 301 301 301 300 299
326 326 326 327 327 326 324 326 323 324 325 325 328 328 326 326 325 326 327 325 323 322 322 321 318 320 320 319 318 319 323 318 317 317 316 315 314 310 311 312 312 313 313 314 312 307 307 308 314 309 311 315 312 308 310 312 311 310 308 309 309 311 311 307 305 305 301 302 301 302 302 302 302 301 301 301 300 300 300 300 300 300 300 299 299
324 328 328 326 328 327 326 324 324 324 325 326 328 329 328 327 326 326 325 325 325 325 324 322 321 321 322 322 320 320 319 319 319 318 318 317 315 314 313 314 315 315 316 318 316 313 313 312 313 310 312 314 312 311 311 311 310 310 309 309 310 309 309 311 310 304 302 301 301 302 303 303 302 302 301 301 302 301 301 301 300 300 299 299 299
324 326 325 325 325 326 327 324 324 324 325 325 327 328 328 328 328 327 325 325 326 325 326 324 325 322 322 323 323 322 321 320 319 319 317 316 315 315 314 313 312 317 320 319 317 315 314 312 313 312 313 313 313 311 310 309 310 309 310 309 309 309 310 311 314 310 302 302 302 303 303 302 302 302 302 302 301 301 300 300 300 300 299 300 300
325 327 325 323 324 323 324 325 325 324 325 326 325 325 325 327 328 327 327 325 324 322 321 321 321 321 324 323 323 321 322 321 320 319 319 317 316 315 314 316 314 313 315 316 316 317 315 313 313 313 313 312 313 314 313 311 311 311 310 310 311 312 312 313 313 312 307 303 303 304 302 301 302 302 302 302 302 301 301 301 300 300 300 299 300
323 323 324 323 326 326 323 323 322 322 323 323 325 325 325 325 325 323 322 321 321 322 321 323 322 322 321 322 323 323 323 323 322 321 320 319 320 316 315 316 315 314 313 314 314 314 314 313 312 313 311 313 314 310 314 312 310 310 308 308 308 311 312 310 311 311 311 313 308 304 306 305 306 304 303 303 303 302 302 301 300 300 300 299 298
326 323 323 324 324 322 321 323 323 322 323 322 324 324 325 323 323 322 322 320 321 321 320 321 323 322 323 324 324 324 324 323 322 322 322 320 320 318 319 317 317 315 312 312 313 312 313 312 312 311 313 310 311 313 314 312 309 309 309 309 307 307 309 311 309 308 311 309 310 311 308 306 306 305 304 303 302 302 302 301 302 302 301 299 299
324 323 322 324 324 322 322 321 321 322 322 322 316 314 320 323 323 322 321 321 321 320 320 321 322 322 324 324 322 322 323 319 310 310 310 314 320 320 319 317 315 315 313 313 312 310 310 310 310 312 311 311 310 311 309 308 308 306 308 309 307 308 308 307 308 309 309 307 307 308 308 309 307 306 307 306 306 304 303 303 302 302 301 299 298
321 321 322 322 322 322 320 320 319 320 321 319 305 300 301 315 321 322 319 321 321 320 318 318 320 322 323 323 323 322 315 314 308 301 299 301 306 312 312 313 315 315 313 311 310 310 310 308 308 308 308 308 308 310 308 308 309 311 308 307 305 306 305 305 307 308 311 308 306 304 306 309 308 306 305 304 305 308 307 303 301 301 301 299 299
322 323 324 323 323 321 320 320 319 320 322 309 295 294 295 298 318 323 322 321 321 320 318 318 320 321 323 323 322 317 316 315 308 300 299 297 296 296 297 300 305 310 312 311 311 311 309 308 308 309 307 307 309 309 308 308 308 306 305 305 305 304 302 301 300 304 309 306 304 303 303 305 306 303 304 303 303 305 305 306 303 301 301 300 299
323 323 323 322 322 322 322 321 321 320 317 296 292 293 294 294 299 314 323 322 321 320 318 320 321 321 322 322 324 324 323 323 320 310 302 295 295 296 295 295 293 293 297 305 306 308 306 305 306 307 308 306 306 308 306 305 304 305 305 303 303 302 301 299 299 299 305 306 302 300 300 303 304 303 302 303 303 304 306 305 300 300 300 300 299
323 322 321 322 321 321 321 320 320 319 315 292 292 293 294 293 294 300 318 321 319 319 321 321 320 320 320 319 320 323 320 318 317 318 311 305 297 296 296 296 296 294 293 293 297 306 305 305 304 304 306 306 306 305 305 304 305 303 303 301 302 300 300 298 298 299 301 304 302 299 298 301 302 301 300 303 304 304 305 302 300 299 299 299 298
321 321 321 320 319 320 321 320 319 315 312 294 291 293 293 292 293 294 318 318 319 318 318 319 319 318 318 318 317 318 319 316 311 316 315 311 309 308 308 309 306 301 297 297 297 297 301 305 304 303 308 307 305 305 306 305 303 301 300 299 299 298 298 298 300 300 302 305 301 299 298 299 301 300 299 300 303 302 303 302 300 299 298 298 298
320 319 319 319 319 319 320 319 313 312 311 291 291 292 292 292 292 293 316 319 318 316 318 318 318 318 317 319 317 316 313 307 301 301 311 314 315 315 313 310 307 305 302 300 299 301 304 306 305 306 302 302 303 303 302 302 302 301 301 299 299 299 299 300 300 301 302 304 303 301 297 297 297 296 297 299 301 299 300 301 300 300 298 298 298
322 321 320 321 320 319 319 314 312 311 307 291 292 293 293 292 291 309 318 316 316 315 316 315 311 309 310 311 316 313 308 304 296 292 295 304 313 312 311 308 306 302 297 295 293 295 298 299 298 299 299 297 296 298 297 298 298 298 298 298 298 297 297 295 294 297 297 299 300 297 295 294 296 296 295 298 299 297 299 298 299 301 300 299 298
320 320 319 319 319 318 316 313 311 310 309 295 291 293 293 291 299 316 318 316 313 314 314 311 307 304 303 308 314 309 306 300 292 291 292 300 311 311 310 309 307 304 300 298 292 291 291 291 291 291 290 290 291 290 291 292 294 295 294 293 293 294 292 291 292 292 293 296 298 298 296 294 296 296 295 297 297 296 296 297 298 300 300 299 297
316 317 316 316 317 316 313 312 311 309 310 300 291 292 292 291 294 308 313 315 312 311 311 310 307 302 301 303 309 306 302 298 291 291 293 304 309 309 310 309 306 303 302 302 303 300 291 291 291 290 290 291 291 291 292 291 290 293 294 292 294 294 293 292 291 292 294 295 296 299 294 293 295 295 293 294 294 296 296 296 297 298 298 297 296
314 314 314 313 313 314 314 312 310 311 310 302 290 293 291 291 296 310 311 311 309 310 310 309 307 303 299 297 298 298 298 293 290 291 292 301 307 306 306 305 305 304 303 304 303 301 300 300 298 296 296 293 293 293 295 292 291 294 295 295 295 293 291 292 293 292 290 292 296 299 293 292 292 293 293 291 290 293 295 296 296 296 296 297 297
Wind_Speed
1 3 2 1 1 0 1 1 2 3 3 2 1 1 1 1 1 1 1 2 4 3 3 3 14 3 4 2 2 2 8 5 2 1 4 6 6 7 12 10 7 5 5 10 9 10 10 9 8 8 8 10 10 9 9 9 8 8 8 8 8 9 9 8 9 9 9 9 9 9 9 10 10 9 9 10 11 11 10 10 10 11 11 11 10
4 3 3 2 1 0 2 1 1 2 1 1 3 1 1 0 1 1 1 2 1 2 1 2 5 10 9 4 1 2 7 7 4 3 2 3 6 7 11 10 9 6 5 8 10 9 10 9 8 8 7 9 9 10 9 9 8 8 8 8 7 7 8 8 7 8 8 8 8 8 9 8 9 9 9 9 10 10 10 10 10 10 10 10 11
5 4 3 3 1 2 1 0 1 1 0 0 3 1 1 1 1 1 1 2 2 2 1 2 3 2 6 11 11 2 3 8 4 4 3 1 6 5 7 11 10 8 7 8 4 9 9 10 10 8 7 6 10 9 9 9 9 8 8 7 7 6 6 6 7 7 7 8 8 8 8 9 8 8 8 9 9 9 9 10 9 9 10 10 10
2 1 3 2 3 3 0 1 1 1 1 0 1 1 0 1 1 2 2 2 1 3 2 2 4 4 3 6 9 8 1 5 4 4 4 2 5 5 5 5 9 7 7 6 7 5 8 9 10 8 7 5 10 9 10 10 9 9 8 7 7 6 6 6 6 6 7 7 7 7 8 8 8 8 8 7 8 8 8 9 9 8 9 10 10
7 6 6 2 2 2 2 2 1 1 0 1 1 1 1 1 1 3 1 0 0 0 3 2 1 3 4 5 4 8 9 2 5 3 5 2 4 5 5 5 4 6 6 6 6 5 3 8 8 8 7 7 8 9 8 8 10 9 9 8 8 7 6 6 5 5 6 6 6 7 7 7 8 8 8 7 7 7 8 8 8 8 9 9 10
6 5 4 4 3 2 1 1 0 0 1 0 0 1 0 0 1 1 1 1 1 1 2 2 1 2 5 8 4 3 6 11 5 2 4 3 4 5 7 5 2 3 4 6 6 5 6 5 8 9 8 7 8 7 8 8 9 10 10 9 8 7 7 6 5 5 5 6 6 6 6 6 7 7 6 7 7 7 7 7 7 8 8 8 8
5 5 5 4 4 4 2 1 1 1 1 1 1 1 2 0 1 1 1 1 0 1 1 1 2 3 2 3 4 4 5 6 10 3 2 3 6 9 7 2 3 1 3 5 4 6 6 7 6 7 8 7 8 7 4 8 9 9 9 8 7 7 6 5 5 5 5 4 4 5 5 5 6 6 6 6 6 6 6 6 7 7 7 8 7
4 4 4 3 4 4 3 3 3 2 3 1 2 1 0 0 1 1 1 1 1 2 1 1 1 1 1 1 0 5 4 7 5 6 9 3 7 9 5 2 2 2 2 1 4 3 6 7 6 4 5 5 4 5 6 7 5 4 9 8 7 6 5 5 5 5 5 5 4 4 4 4 5 5 5 5 5 5 5 5 6 6 6 6 7
5 4 2 3 4 4 3 4 3 2 2 1 2 1 0 1 1 2 2 1 1 2 1 0 0 0 0 2 4 3 2 6 4 5 6 7 7 6 3 5 6 5 2 1 4 5 4 6 6 5 5 5 4 4 4 6 6 5 8 7 7 7 7 6 5 6 5 5 5 4 4 4 4 4 5 5 4 4 4 4 5 5 5 6 5
4 4 3 4 3 2 3 2 2 1 1 1 1 1 2 1 1 1 1 2 2 1 1 1 0 1 2 5 4 3 0 3 2 3 7 4 4 4 5 4 1 2 2 1 3 4 3 4 6 5 5 4 4 4 5 5 4 6 5 8 7 8 8 7 7 6 6 5 5 5 4 6 5 4 4 5 4 4 3 3 4 4 4 4 4
6 4 4 3 3 4 2 2 1 1 0 0 1 0 2 1 0 3 1 1 1 2 2 0 2 1 2 5 1 1 2 1 4 8 9 5 1 5 2 2 3 2 2 2 3 3 3 3 2 2 2 3 2 3 3 3 4 4 7 9 9 9 8 7 9 7 7 6 6 7 5 5 5 4 4 4 4 4 3 3 3 3 3 2 3
5 4 2 3 3 4 3 2 2 2 2 3 2 1 0 1 0 1 2 1 0 2 0 2 1 2 3 2 2 3 2 2 3 9 10 5 3 3 2 1 1 1 1 2 3 3 2 3 2 2 1 4 3 4 5 3 3 1 2 4 9 10 9 7 8 9 8 7 6 7 6 6 6 5 5 4 5 4 4 3 2 3 3 2 2
6 4 3 5 3 3 2 2 2 2 2 0 1 1 1 1 2 2 1 0 0 0 1 1 1 2 0 0 0 3 2 3 5 9 11 4 2 2 1 2 4 2 1 2 2 3 2 2 3 4 1 2 2 2 2 5 3 1 2 2 2 1 6 7 4 12 10 8 7 7 8 7 7 6 5 4 4 4 4 4 3 2 3 2 1
5 5 5 7 5 4 3 3 2 2 2 1 1 2 2 2 3 2 1 1 1 1 1 1 2 2 3 2 2 1 1 2 4 8 9 5 2 2 0 1 2 4 2 3 2 2 3 2 6 2 3 2 2 1 2 2 0 2 1 1 1 3 2 4 11 3 5 8 7 6 8 8 8 6 6 4 4 4 3 5 6 4 3 2 3
5 5 4 3 4 4 4 4 4 3 3 2 1 2 0 0 2 1 2 2 2 2 0 2 2 2 2 2 2 2 2 2 6 7 7 4 2 2 1 1 2 2 3 4 3 4 5 3 2 1 3 2 5 4 2 2 2 1 1 1 2 1 2 5 6 6 2 3 6 6 9 9 8 8 7 6 5 5 5 4 6 6 4 4 3
6 7 5 3 2 3 4 3 2 2 2 1 1 2 4 2 2 4 2 3 1 1 2 1 1 3 2 0 0 1 0 1 5 4 3 5 3 3 2 1 2 4 4 4 4 5 5 1 3 4 3 4 4 2 1 0 4 3 6 6 6 6 2 4 7 4 1 4 2 2 10 10 9 9 8 8 7 6 6 6 6 7 6 5 5
5 6 5 4 4 3 3 4 3 2 1 4 3 4 3 2 4 2 3 1 3 0 1 0 1 0 2 1 1 1 0 1 6 2 1 4 4 2 4 2 2 3 4 4 4 4 4 4 4 3 2 2 1 2 1 2 2 2 4 7 8 9 9 2 0 2 6 6 4 3 5 7 8 8 8 7 8 8 8 8 8 7 7 7 7
5 6 5 4 4 2 2 4 3 3 2 2 2 3 4 4 4 3 5 4 1 2 1 2 2 1 1 2 1 0 2 1 2 3 4 4 1 2 3 4 3 4 4 4 4 4 5 3 2 3 1 1 2 2 3 4 5 5 5 5 8 9 6 6 3 2 3 3 2 1 3 3 3 5 6 8 9 11 11 10 9 9 9 9 8
4 4 4 3 3 2 1 2 5 3 3 4 3 5 5 3 3 4 4 3 3 4 1 2 1 1 3 2 1 2 2 2 2 5 4 1 3 3 3 2 3 5 5 3 3 5 3 3 3 1 1 4 4 4 4 5 8 7 9 6 7 8 6 6 7 7 5 2 2 1 2 3 4 4 4 7 9 11 12 11 11 10 10 10 10
4 4 3 3 2 2 2 4 1 6 3 5 5 5 5 4 3 3 4 4 4 5 3 2 3 0 1 2 1 2 2 5 4 1 2 5 2 3 2 3 2 3 3 4 5 5 5 5 5 3 3 4 4 3 6 7 6 6 5 9 9 9 9 8 7 7 7 5 4 1 1 2 4 5 3 7 8 8 9 11 10 9 10 11 11
4 4 4 4 3 3 3 3 4 4 6 5 4 5 4 3 3 2 4 3 3 3 3 3 2 1 1 2 3 3 3 2 2 2 4 5 3 2 2 2 5 5 3 3 5 5 5 6 5 2 2 4 4 5 6 6 5 5 7 10 11 11 10 9 9 11 11 8 7 7 7 6 5 5 4 0 5 7 7 7 8 9 9 9 9
4 4 4 4 4 4 3 3 3 3 4 5 5 4 3 4 4 3 3 4 3 3 3 4 3 4 3 3 2 2 3 2 2 3 1 3 7 4 2 4 4 2 4 3 7 6 6 6 6 4 3 5 6 6 6 6 4 4 6 11 11 11 10 10 11 12 12 13 13 12 12 13 13 12 13 13 11 6 2 5 8 10 10 9 8
4 5 5 4 4 3 3 3 3 4 4 4 3 4 3 3 4 4 4 4 5 5 5 4 3 3 2 1 3 2 2 3 3 2 2 5 6 6 2 3 4 6 4 6 9 10 8 7 6 5 5 5 6 5 5 5 6 7 11 10 10 11 11 11 11 11 11 10 13 13 12 13 13 14 14 14 13 13 12 12 11 6 3 4 5
3 4 4 3 3 3 4 4 3 3 4 3 3 4 5 5 5 5 5 5 5 5 4 5 5 4 4 5 5 4 4 4 5 4 5 6 6 7 5 5 5 3 5 6 9 9 8 8 8 7 6 5 5 6 6 6 6 8 7 10 10 10 10 10 10 10 11 12 12 12 12 13 13 14 14 14 13 13 13 13 12 11 11 10 9
4 3 3 3 3 3 4 4 4 4 3 3 3 5 4 4 4 5 4 4 4 4 5 4 4 4 3 5 5 5 3 5 3 5 4 6 7 6 4 3 6 5 4 3 4 7 7 7 7 6 6 4 5 5 5 5 4 6 9 8 12 10 11 11 11 10 11 11 11 12 12 13 13 13 14 14 14 13 12 11 10 10 10 10 10
4 3 3 4 3 3 3 3 3 3 3 3 4 4 4 5 4 4 4 4 5 4 4 4 4 4 3 6 5 5 4 4 5 3 4 4 5 6 5 5 5 7 6 6 7 6 7 8 7 6 5 6 5 5 5 5 4 7 10 8 9 10 10 10 10 9 9 9 10 10 11 12 12 13 12 13 12 11 10 10 10 10 10 10 10
4 4 5 4 4 3 3 3 3 3 3 3 3 4 4 5 4 5 4 3 5 5 5 4 3 3 4 4 4 5 6 6 5 5 5 4 3 5 5 6 3 4 6 5 7 6 5 6 7 6 6 4 4 5 5 4 6 10 10 7 6 8 9 9 9 9 9 9 9 9 9 10 10 9 9 9 9 10 10 9 9 9 9 9 10
5 4 3 3 3 4 3 3 3 2 3 3 3 3 3 4 4 4 4 4 5 5 4 3 3 4 4 5 5 4 6 6 5 5 5 1 3 0 1 1 5 5 5 5 4 6 6 6 6 6 5 5 4 5 7 8 6 10 9 5 4 4 6 9 8 9 8 7 7 7 8 8 8 8 8 8 8 8 7 7 6 7 7 7 7
5 3 4 4 3 3 3 3 3 4 3 3 3 3 4 4 4 4 4 4 4 4 4 4 4 4 4 5 5 4 4 4 5 5 6 5 3 3 2 5 5 2 5 4 3 4 5 7 5 4 6 5 6 6 5 5 7 5 5 5 4 3 3 7 8 7 8 7 6 6 6 5 6 6 6 6 6 6 6 5 5 5 5 6 6
3 3 3 3 3 4 3 3 3 2 2 2 3 3 3 4 3 3 3 3 4 3 4 4 3 3 4 4 3 3 3 3 4 4 6 6 6 4 5 6 7 4 2 6 4 3 2 3 4 5 4 4 5 5 5 4 1 5 6 5 4 3 5 5 7 7 8 7 7 6 5 4 4 4 3 4 4 3 4 3 3 4 4 4 4
4 3 3 3 4 3 3 3 2 3 3 2 2 3 3 3 2 3 4 4 4 4 3 4 3 3 5 5 4 4 2 4 3 3 4 3 4 3 5 7 6 5 7 8 5 3 3 4 3 4 4 6 4 4 4 3 1 5 6 6 5 8 9 4 5 6 7 8 7 6 5 4 3 2 1 2 3 3 3 3 3 3 3 3 3
3 3 3 3 3 4 3 3 2 2 1 0 2 2 2 2 3 2 2 3 3 3 2 2 2 3 4 5 4 4 4 3 3 3 1 3 4 5 5 5 4 5 7 7 7 5 4 3 4 2 2 3 8 6 5 3 3 4 5 5 7 10 5 3 4 5 5 7 6 6 4 3 2 2 2 3 3 3 3 4 4 3 3 3 4
3 3 3 3 3 3 4 4 3 3 2 0 1 0 0 2 3 1 1 2 5 4 2 2 3 3 2 4 3 4 4 4 6 2 2 1 2 3 3 6 6 6 4 8 7 5 2 0 1 3 1 3 2 7 7 5 4 4 5 7 8 6 5 5 4 5 6 6 6 6 5 2 1 1 2 3 4 5 4 3 3 3 3 3 3
4 3 3 3 3 3 4 4 3 4 3 2 1 1 1 3 2 1 1 1 4 3 0 4 3 2 3 4 4 3 3 3 3 5 4 5 3 3 8 5 6 5 6 5 6 5 3 1 1 4 2 1 0 5 5 2 3 6 7 6 6 7 7 6 6 5 7 7 8 8 7 6 6 5 5 6 7 7 6 6 5 4 3 3 4
3 3 3 3 3 3 3 3 3 3 3 3 1 1 3 1 1 0 1 2 3 1 0 1 3 2 3 2 3 1 2 4 3 3 3 4 5 5 5 5 5 5 4 3 2 4 6 3 3 4 2 1 0 2 6 5 3 2 3 4 4 6 8 9 6 6 11 12 11 10 9 9 8 8 8 9 9 9 8 8 7 5 5 4 4
3 3 3 3 2 1 3 3 3 4 3 4 1 1 2 1 1 1 0 1 1 1 0 1 3 3 2 1 3 2 1 0 3 3 2 4 6 6 3 2 4 4 4 3 3 3 2 5 1 5 3 1 2 1 5 5 3 3 1 3 3 4 4 3 8 7 9 13 11 11 10 10 10 10 10 11 11 10 10 9 8 6 6 5 5
4 3 3 4 3 3 3 3 3 3 3 4 2 1 3 1 1 1 1 1 0 1 1 3 4 4 3 1 3 2 2 2 1 3 5 5 5 6 6 5 5 4 1 2 2 3 3 3 2 3 4 1 1 2 0 2 3 2 0 1 1 1 4 2 2 5 10 13 11 11 11 11 10 10 11 11 12 12 11 10 9 8 7 7 6
3 3 3 4 4 4 3 2 2 3 3 5 4 2 2 2 1 1 1 2 7 10 11 13 14 8 2 1 3 2 4 2 2 3 3 3 3 3 4 4 3 5 5 2 2 1 4 3 4 2 0 2 2 0 2 3 3 2 1 1 2 4 2 1 1 3 4 5 4 6 8 7 8 10 11 12 12 13 13 12 10 10 9 8 7
5 4 3 4 3 2 4 11 15 15 13 11 8 4 3 3 5 9 12 10 9 5 2 2 2 5 8 9 5 5 4 3 3 3 1 2 1 2 3 3 3 4 5 3 3 3 5 4 3 2 2 3 1 0 0 2 2 3 2 6 5 4 4 4 3 2 3 2 8 14 9 8 9 7 9 12 12 13 15 14 11 12 10 8 8
3 3 5 7 7 9 9 8 7 7 5 4 3 5 5 6 5 5 2 2 3 4 0 4 2 2 1 3 4 2 1 2 2 3 2 1 1 2 2 2 4 3 3 4 5 6 4 3 1 0 0 1 2 0 0 2 2 3 3 2 4 4 5 2 2 5 3 4 5 1 6 6 6 7 8 8 11 14 16 14 12 12 11 9 8
4 6 5 4 4 6 11 9 7 4 1 2 4 4 3 2 3 6 7 3 3 4 1 4 2 1 2 3 1 2 1 4 6 6 5 5 3 3 4 3 3 3 3 3 3 4 3 1 0 2 2 2 1 1 1 2 1 2 1 1 1 2 2 4 4 4 5 3 4 6 4 3 5 5 5 5 6 9 10 12 9 12 12 9 9
4 4 4 4 4 6 7 6 7 6 2 3 2 2 1 2 5 7 8 6 4 0 2 2 3 4 5 6 5 7 6 4 7 8 8 9 8 5 2 4 4 3 0 0 2 3 3 2 2 2 1 1 1 0 2 1 1 0 2 1 2 3 4 4 5 3 2 5 5 5 6 4 4 5 6 7 6 6 4 2 5 7 8 11 11
4 4 4 5 6 5 5 4 2 3 4 3 5 3 4 4 2 4 4 3 3 2 2 3 3 3 3 5 4 5 5 4 5 7 9 10 9 9 9 7 5 3 3 2 1 1 1 3 4 5 4 1 1 1 2 3 5 4 3 4 5 5 4 4 4 4 4 8 5 5 7 5 7 8 7 6 5 6 5 4 8 12 11 10 12
3 4 5 5 5 5 4 4 2 1 2 4 3 2 1 5 4 1 1 3 4 3 4 4 4 3 4 3 4 3 2 2 3 6 7 9 9 8 8 8 9 8 7 4 2 3 3 3 5 5 5 3 3 6 4 3 4 3 3 3 3 3 4 4 4 4 4 7 7 7 9 6 5 5 5 5 6 6 4 2 5 8 11 10 11
4 4 4 5 4 3 3 5 4 2 2 3 2 2 4 1 3 3 3 6 7 6 6 5 3 4 3 5 4 3 4 3 1 5 5 5 5 6 7 7 7 7 8 7 5 3 2 1 2 4 3 4 4 5 4 2 2 3 4 5 5 5 4 4 4 5 6 6 7 7 7 5 4 5 6 6 6 3 5 7 5 8 8 10 11
3 3 3 5 4 3 3 3 3 4 3 2 1 4 2 3 3 2 2 1 2 3 2 2 2 3 3 2 3 5 3 5 7 4 5 4 3 2 3 2 3 5 6 7 8 6 1 1 0 2 3 5 5 3 5 4 4 3 5 4 4 4 4 5 5 7 8 6 6 6 6 6 7 6 6 6 4 4 3 5 9 3 9 10 11
3 3 4 4 5 4 4 3 5 4 2 2 2 1 1 4 6 3 2 1 2 3 3 2 4 6 5 4 5 7 6 6 6 6 3 0 4 5 4 6 5 4 4 4 4 4 5 5 4 5 4 4 4 4 4 4 4 2 1 2 4 4 6 6 6 7 8 8 8 5 6 4 3 4 4 5 3 4 3 5 8 5 6 10 12
3 3 2 3 6 6 6 6 6 4 3 3 2 2 1 1 4 2 3 2 3 4 4 9 8 7 6 6 3 8 6 6 7 11 7 4 3 1 5 6 5 4 4 2 3 4 4 3 3 3 2 2 3 2 2 2 3 3 3 3 4 4 5 5 5 4 4 4 5 5 6 5 4 5 5 5 6 6 4 4 6 11 13 12 9
3 3 3 4 6 7 7 6 6 4 3 4 3 3 1 2 2 1 3 2 6 4 7 8 7 7 7 6 5 7 7 6 8 11 11 7 3 4 2 7 6 5 4 2 2 4 6 7 7 6 5 4 3 4 3 3 2 2 1 2 3 4 6 6 5 5 5 4 5 6 5 6 4 5 7 5 5 5 5 6 6 7 6 3 8
6 5 5 4 3 6 8 7 6 6 4 5 8 5 4 2 1 1 3 2 7 6 8 8 6 6 8 14 10 7 7 5 8 11 11 7 4 4 5 4 8 6 4 3 2 2 3 3 4 2 1 1 2 3 3 3 4 2 0 1 2 2 5 4 5 3 4 5 5 3 4 4 5 5 6 6 6 4 5 4 6 6 4 4 6
6 7 8 6 6 5 8 8 10 7 4 4 7 7 6 4 1 2 2 3 5 6 8 8 7 6 6 8 11 9 6 6 10 10 12 8 5 7 8 8 5 7 3 4 3 2 0 1 1 1 2 4 3 3 4 8 8 7 3 3 2 2 4 5 5 5 5 2 3 7 5 4 5 4 5 6 6 4 5 6 7 7 7 7 7
Wind_Direction
299 144 70 46 132 233 9 335 61 44 40 45 319 51 138 275 241 259 134 30 10 355 5 17 292 287 290 275 169 165 112 126 135 153 127 141 146 149 145 140 127 104 123 143 141 138 137 136 136 129 132 138 138 132 128 127 122 121 121 118 115 115 117 116 112 105 103 100 95 93 94 90 86 86 82 85 82 80 81 82 84 80 76 77 76
223 106 141 159 110 80 97 48 57 91 96 335 63 104 138 197 343 357 68 118 61 307 352 255 324 341 318 280 128 235 122 137 183 132 67 143 133 150 148 139 120 94 64 140 150 147 144 139 140 134 137 145 148 142 132 132 129 127 120 121 122 122 121 121 119 111 109 105 104 100 96 97 92 86 86 84 85 86 87 87 90 88 83 83 83
152 144 137 96 248 30 339 85 54 52 115 31 120 154 131 121 146 58 55 37 23 299 233 283 354 278 356 348 324 267 88 118 173 127 145 123 130 149 150 135 119 98 85 60 80 154 146 149 150 143 143 151 147 142 136 136 139 132 131 126 128 130 126 125 118 120 116 112 109 110 105 101 102 95 93 90 90 88 91 95 92 86 85 85 87
35 36 95 197 150 151 180 44 67 136 84 324 47 51 101 183 110 99 67 82 338 309 318 39 341 342 346 14 339 328 95 81 154 164 130 124 118 133 118 114 113 104 85 84 66 68 153 151 151 145 143 140 142 149 146 147 147 144 140 140 140 139 139 131 132 127 132 125 117 114 114 107 103 103 95 95 95 95 87 84 82 78 83 85 82
178 168 144 220 36 65 69 65 25 66 33 82 62 335 32 283 114 63 123 127 145 304 349 18 37 337 346 342 37 349 327 229 164 134 105 103 75 97 108 105 100 99 101 99 81 69 77 163 144 149 146 151 140 153 157 154 155 152 149 153 153 153 154 150 143 142 132 130 127 118 117 114 107 106 103 103 100 95 89 81 82 81 80 81 82
137 111 140 151 167 144 132 146 166 58 59 257 179 175 200 100 92 158 44 101 74 16 336 52 53 45 9 336 5 351 41 -0 332 115 116 127 86 72 64 64 128 147 119 103 102 90 70 99 147 156 152 160 149 159 175 158 159 164 161 158 161 162 160 161 151 143 139 131 133 130 122 125 124 117 118 110 104 99 96 94 86 83 84 88 85
110 140 154 157 131 126 142 140 125 136 212 166 236 174 223 214 80 283 130 149 131 87 51 5 30 40 77 293 320 10 72 76 312 309 128 113 107 72 46 51 5 39 151 150 126 124 121 116 112 149 162 160 159 173 153 149 161 171 165 162 166 163 161 164 158 146 142 139 134 135 135 131 130 128 115 117 109 108 98 106 105 93 82 84 92
124 117 118 130 120 131 160 172 164 151 227 200 237 205 157 136 17 303 307 7 190 111 87 39 31 8 12 206 35 17 40 81 305 342 352 10 88 97 156 204 226 244 122 92 134 125 111 101 99 110 145 148 147 170 166 158 159 162 162 166 166 164 162 165 161 152 150 148 148 146 145 138 129 125 128 115 117 112 108 99 102 103 95 84 78
117 117 109 105 136 160 161 164 173 166 153 184 217 195 175 120 129 343 349 315 345 99 86 25 322 254 91 51 12 51 342 104 246 104 57 55 71 99 168 178 202 181 71 53 102 120 118 119 111 99 97 119 147 172 178 164 147 160 166 170 161 168 175 170 174 167 160 158 154 158 150 138 134 138 142 139 125 121 114 103 95 96 101 95 81
123 135 126 128 117 137 157 154 133 175 163 147 279 201 107 118 143 128 35 12 10 10 84 44 294 346 21 52 33 310 184 96 289 88 99 73 103 145 171 171 131 75 112 63 94 102 107 103 104 101 105 126 147 170 174 169 161 151 170 168 167 183 180 181 173 175 167 166 158 165 150 145 164 162 147 139 139 128 120 114 102 102 92 97 96
139 146 130 124 146 139 145 139 127 123 118 222 233 318 127 144 180 103 69 72 340 339 73 6 19 19 34 32 2 295 287 175 165 78 87 36 61 142 147 67 111 144 142 133 93 107 107 118 121 141 118 110 136 158 171 184 178 166 159 173 181 188 193 192 176 182 181 175 174 164 166 166 169 177 171 145 143 150 139 129 121 114 106 97 105
113 94 118 159 136 132 134 157 146 180 193 207 180 201 195 161 101 82 141 128 91 300 29 76 48 42 38 349 282 262 325 347 71 94 83 116 278 34 80 107 82 123 133 118 100 105 101 116 150 93 132 149 118 48 20 38 48 65 148 193 175 193 189 195 190 181 185 188 189 167 170 175 178 184 188 170 157 150 151 147 138 134 130 136 136
96 126 152 97 66 101 132 142 171 218 216 280 116 159 178 180 114 73 31 117 168 166 17 103 70 357 33 346 31 326 28 20 47 81 97 110 188 160 201 180 141 125 92 98 138 128 102 125 152 87 20 32 93 66 31 17 19 2 176 208 279 188 203 207 193 185 183 196 194 183 172 179 186 190 188 189 177 160 156 146 163 171 159 167 174
154 156 138 133 151 147 153 182 190 191 202 171 156 192 203 205 137 117 88 2 41 23 144 255 52 44 26 16 31 255 50 50 23 80 98 113 284 118 228 268 101 113 138 117 62 115 126 73 15 62 70 57 306 135 47 16 289 271 256 282 226 249 272 1 20 24 220 204 195 192 173 184 189 191 191 194 192 193 171 173 166 190 187 178 189
153 152 127 116 138 152 144 162 178 178 179 178 175 136 98 215 97 117 96 52 345 304 351 18 104 58 54 34 6 342 339 73 67 52 79 124 167 85 95 37 70 82 88 94 87 51 56 26 217 90 97 62 32 13 110 248 281 162 335 327 324 9 64 85 243 227 157 242 223 195 180 193 192 192 194 200 199 199 214 196 172 182 194 205 204
126 88 85 107 111 113 109 94 79 52 60 68 188 155 164 163 142 134 136 120 189 68 28 339 36 101 82 162 224 248 137 355 78 39 22 87 119 106 75 53 34 61 53 67 69 81 86 292 37 65 65 101 155 192 157 39 19 40 36 28 18 9 45 162 223 225 219 282 230 208 185 194 194 196 197 200 200 210 208 212 204 191 197 206 205
88 108 91 73 56 41 101 97 61 39 118 103 51 347 24 44 77 85 145 154 120 179 49 97 191 319 102 159 180 194 107 128 98 18 84 85 74 87 102 111 84 77 84 68 78 80 91 61 52 82 93 114 170 153 113 78 52 66 73 54 41 42 42 71 20 169 199 226 227 196 175 197 205 203 207 206 204 205 214 214 206 205 204 205 211
57 67 97 121 133 145 114 110 134 122 60 65 120 129 77 43 50 29 52 55 137 127 69 17 17 233 236 273 162 137 135 155 173 109 45 42 34 75 59 73 97 93 69 71 84 79 80 92 42 54 118 173 115 70 63 61 59 50 53 47 56 62 48 14 33 63 156 189 215 243 299 271 226 219 205 229 218 210 217 216 210 211 211 209 211
70 82 84 68 51 26 21 133 145 114 134 108 73 34 80 62 50 49 54 67 79 105 90 128 255 88 131 245 11 56 26 53 46 110 120 0 12 26 43 8 80 104 112 113 93 90 94 87 80 48 84 71 66 69 88 88 76 66 56 63 76 75 67 46 27 29 36 34 358 349 165 205 215 197 209 211 221 219 219 216 215 215 219 219 215
136 129 109 91 97 93 45 359 11 150 120 72 75 58 45 70 63 71 69 54 60 83 110 119 158 157 87 124 80 87 116 109 113 162 111 131 74 340 81 117 25 25 104 121 119 122 109 92 85 44 55 74 88 83 65 59 50 51 47 59 65 67 63 54 43 34 24 28 30 23 0 5 27 359 239 207 217 228 229 229 237 229 224 226 227
90 93 108 113 96 68 51 33 21 48 90 93 88 97 89 70 65 64 97 76 68 84 93 90 101 164 160 141 145 135 124 135 125 128 102 112 111 113 109 135 144 184 161 139 140 129 118 113 105 109 58 80 84 69 66 68 62 54 52 62 71 72 70 59 51 46 32 17 53 56 50 37 49 33 34 169 232 230 226 234 236 247 249 250 259
57 57 62 76 91 96 67 43 49 68 95 114 120 106 105 109 99 80 80 99 93 96 100 135 158 187 184 164 128 127 124 105 103 95 124 120 139 133 130 113 96 86 124 130 112 119 128 129 128 128 107 75 67 64 59 59 52 55 50 60 65 67 62 56 49 45 39 30 47 54 54 53 55 54 50 48 48 36 300 259 240 231 244 250 247
75 72 71 55 47 70 98 84 42 30 67 87 83 95 98 94 104 84 62 65 66 52 37 26 59 38 32 79 122 104 99 121 126 133 122 107 106 105 141 198 136 142 175 143 129 137 139 138 135 123 91 85 91 92 88 85 76 70 65 62 63 68 65 61 59 52 47 39 40 50 53 50 50 52 52 50 47 43 46 50 49 32 329 280 271
91 82 83 92 89 73 61 53 43 44 39 35 74 94 96 80 62 65 72 61 66 63 42 37 21 23 29 11 52 61 50 88 137 138 110 116 121 137 163 148 133 114 142 145 133 116 114 109 107 110 111 107 106 109 106 97 91 93 79 65 64 62 62 63 58 56 54 50 47 49 52 54 53 53 53 54 52 48 45 47 47 44 39 37 29
115 118 129 103 70 63 68 58 48 32 35 40 100 105 86 85 84 76 60 77 77 76 66 43 31 23 24 25 42 36 49 24 59 121 121 120 133 132 163 193 129 146 154 146 96 107 114 109 103 102 109 101 94 82 93 99 104 98 85 59 58 58 59 64 64 60 59 56 51 49 50 53 54 52 54 57 54 50 48 43 41 39 37 37 37
124 118 106 93 80 81 77 91 91 87 70 42 32 48 86 82 69 71 83 76 72 69 75 63 35 19 25 63 36 17 5 47 26 82 94 124 119 129 152 144 157 153 145 116 124 116 95 96 94 89 94 103 106 101 87 94 93 94 88 82 58 59 68 72 73 74 73 68 64 58 54 53 53 51 51 54 55 55 51 48 45 42 38 33 32
122 107 94 106 123 109 110 103 99 99 105 82 57 67 68 84 108 112 93 84 100 98 73 63 45 26 31 63 66 29 21 10 50 31 87 77 118 161 154 150 166 111 108 104 93 85 101 88 102 99 93 106 114 119 114 110 127 117 99 85 75 67 79 82 81 83 81 77 73 67 64 61 57 57 56 52 50 49 47 44 42 40 38 31 26
108 118 131 119 110 123 123 123 119 102 83 76 73 67 72 72 65 65 74 67 70 74 80 66 46 24 35 58 53 46 33 18 29 41 28 29 132 219 267 132 120 110 87 89 98 113 121 108 109 118 116 105 117 117 129 134 141 140 111 103 110 91 97 99 96 89 81 78 75 70 66 60 59 60 56 55 54 51 45 45 41 37 38 34 23
125 127 124 139 156 123 100 85 77 83 86 101 110 83 86 96 85 77 78 76 76 70 64 67 50 29 35 65 72 48 54 42 21 14 2 12 34 21 25 102 41 132 131 122 114 113 120 134 122 124 131 142 137 155 152 136 151 173 109 110 111 108 108 109 105 101 99 98 93 90 79 67 62 56 51 51 52 50 48 45 37 27 28 32 17
134 138 143 151 128 114 120 116 131 134 117 90 84 100 75 68 83 91 106 97 79 70 72 76 56 35 43 63 66 76 57 63 52 20 20 12 345 35 10 43 74 32 122 114 92 66 76 53 117 127 121 112 120 118 111 125 137 152 120 128 131 135 147 129 127 124 120 115 112 109 106 98 79 63 52 52 49 44 31 28 36 21 17 24 16
135 152 152 155 135 130 125 125 99 79 75 83 98 87 110 92 92 80 74 87 100 96 93 90 70 64 51 38 28 25 41 78 72 69 31 357 354 76 49 53 34 46 99 123 107 4 67 73 35 79 130 157 136 105 101 109 114 111 134 142 146 153 152 146 153 145 138 132 125 122 118 117 107 73 42 12 13 6 359 351 1 5 7 13 15
146 147 166 148 155 140 133 120 115 97 96 67 98 124 120 145 103 92 108 127 105 83 66 53 102 99 92 68 43 14 7 48 53 46 53 29 23 23 62 70 55 24 56 77 94 74 18 105 112 124 97 137 134 126 118 133 180 202 149 160 150 155 154 148 193 187 168 148 139 124 108 92 64 36 9 345 333 332 338 331 343 345 349 358 2
142 164 151 162 155 156 141 143 140 131 134 148 60 91 71 84 90 112 186 118 108 109 120 111 63 51 59 118 82 32 17 33 8 305 18 334 80 52 74 95 58 34 77 108 103 103 77 53 150 103 59 357 143 140 150 158 173 225 162 159 155 167 162 168 184 203 196 173 160 151 142 139 140 278 294 299 294 287 282 287 293 315 321 335 342
150 180 166 163 163 171 159 155 150 149 154 134 205 103 70 56 54 355 26 341 78 74 95 95 73 66 16 68 61 23 26 34 1 14 14 4 329 103 48 44 54 47 33 99 120 134 150 252 127 122 163 178 276 124 104 116 190 203 171 176 174 166 173 168 178 183 205 205 188 174 170 188 211 238 253 260 260 264 269 265 259 267 278 294 306
171 176 180 158 166 174 149 166 151 153 172 143 176 125 83 103 91 17 353 48 68 56 323 133 148 110 76 80 108 66 0 33 341 23 350 25 350 57 83 67 72 49 44 53 100 134 152 181 174 160 132 79 17 132 136 183 189 216 215 165 164 162 159 173 175 173 197 201 199 197 183 193 209 221 234 244 250 255 255 257 257 254 250 254 268
179 191 151 166 171 188 177 177 176 152 182 133 153 92 140 133 148 99 320 43 48 152 333 300 115 133 119 83 96 114 69 351 5 349 354 36 20 1 34 105 97 92 43 17 47 94 99 146 146 90 133 191 223 247 150 164 208 261 268 145 207 171 172 141 147 179 197 199 199 208 198 199 208 219 232 241 244 244 246 247 247 249 246 241 238
172 190 152 178 169 206 211 194 198 163 153 156 126 108 81 39 0 26 359 346 54 310 319 347 21 62 40 350 46 2 66 20 30 341 41 35 18 360 35 24 30 20 68 86 63 56 60 61 95 154 165 201 135 92 52 82 143 238 59 96 283 343 69 99 278 154 174 195 208 219 210 209 212 224 239 246 250 252 253 250 242 237 238 242 244
168 177 170 181 180 192 195 209 243 198 103 80 82 54 40 359 11 176 300 29 8 20 20 13 346 347 348 12 66 22 4 47 349 41 53 41 14 2 25 28 7 29 356 45 6 108 92 73 46 15 348 96 68 340 53 62 20 341 294 229 163 116 124 82 272 132 158 171 214 223 234 232 229 234 241 248 252 254 257 254 244 242 237 230 235
167 161 190 195 169 203 43 22 26 16 16 3 12 18 15 4 3 10 19 30 19 340 130 147 173 28 8 332 353 19 38 20 25 2 20 53 38 42 16 7 11 38 3 3 12 36 89 73 40 54 359 337 83 106 299 116 182 254 5 12 4 0 21 7 338 354 330 275 198 201 203 199 214 217 233 243 252 255 256 254 243 239 233 221 225
56 67 36 39 38 53 67 77 76 72 101 216 314 20 18 8 16 70 176 215 147 235 310 50 36 116 133 303 315 13 9 52 32 33 29 60 35 20 30 5 37 39 11 340 23 8 59 101 107 223 240 244 290 167 94 57 4 36 61 20 2 346 331 318 321 343 330 310 309 353 215 220 255 266 271 256 251 257 259 255 245 240 234 214 216
76 74 78 56 50 73 75 76 60 42 124 74 44 10 16 88 59 63 17 312 236 240 82 141 149 77 49 275 241 269 76 87 78 78 61 37 33 54 18 358 358 22 12 4 36 355 324 61 162 176 205 251 281 260 33 24 26 60 332 44 316 290 306 338 325 330 295 307 345 353 339 351 322 320 308 304 290 272 261 251 247 244 238 215 206
103 98 97 103 80 79 93 104 139 187 207 103 78 92 102 204 173 131 180 219 238 185 137 193 149 178 174 208 216 162 138 129 106 99 89 71 61 65 54 33 19 357 266 351 345 315 317 340 306 294 263 205 231 74 116 151 180 1 14 355 311 306 355 336 320 283 334 26 16 346 333 337 334 313 306 300 292 284 270 191 222 228 226 212 206
120 113 111 105 99 95 110 127 174 186 125 93 65 33 352 340 78 148 163 158 230 151 196 196 195 187 183 195 154 149 149 143 116 103 81 84 89 91 81 78 69 52 15 15 286 298 327 332 338 324 308 309 77 76 68 53 46 44 34 19 360 348 325 315 302 316 4 27 3 347 315 312 311 295 294 290 294 305 286 247 213 228 226 208 197
120 118 102 89 102 119 122 136 108 92 108 96 76 79 33 31 32 49 132 166 219 190 216 202 195 181 146 144 162 171 178 138 139 113 78 63 72 75 79 89 83 75 70 88 52 33 42 24 1 345 332 5 23 55 44 45 19 17 25 10 343 357 352 346 329 307 318 14 340 314 289 289 279 279 292 291 287 277 298 22 198 217 218 199 193
103 111 121 137 124 121 142 139 147 130 97 74 40 40 41 28 39 1 274 212 197 214 199 203 178 188 180 158 153 142 116 131 235 121 113 96 64 95 107 96 86 79 90 90 81 84 29 14 1 350 44 325 32 57 40 41 345 25 13 11 13 1 347 322 300 312 309 318 306 287 281 279 277 276 269 266 267 292 314 316 261 211 205 197 200
111 111 130 118 130 155 161 134 127 120 118 148 147 57 346 346 343 303 250 71 34 97 59 68 56 70 73 73 115 126 102 55 33 67 124 134 150 146 132 127 78 52 43 37 21 6 3 280 215 266 19 32 53 55 43 35 47 26 26 352 357 332 310 279 284 282 278 276 261 269 278 276 261 255 262 264 263 272 293 309 334 245 204 207 211
137 147 142 158 160 163 153 154 127 139 135 136 120 111 23 335 346 311 296 189 143 86 82 56 52 35 26 27 63 79 73 55 34 31 55 209 184 157 140 103 96 85 69 63 59 42 31 27 20 43 51 35 44 43 31 29 45 48 28 296 283 274 273 273 272 258 263 252 251 249 266 273 277 303 293 300 312 329 333 339 331 321 221 220 221
145 157 162 159 152 157 161 143 137 141 151 157 156 146 36 0 320 272 261 202 116 103 82 62 52 34 21 357 46 85 70 57 11 24 22 351 345 162 130 116 111 101 76 37 60 84 93 84 74 76 78 89 75 74 63 39 27 16 354 327 311 287 290 297 288 307 305 310 320 316 306 312 331 322 314 322 340 326 326 321 308 298 283 263 233
163 166 163 160 159 163 147 142 143 144 151 173 197 182 153 344 322 271 268 204 111 111 94 84 66 48 23 5 65 79 70 47 14 27 10 8 340 321 160 142 137 127 124 145 141 105 103 114 125 126 133 127 90 99 90 87 93 73 4 340 301 356 346 318 306 310 294 338 328 329 319 323 339 334 319 320 319 315 318 299 285 289 316 285 213
166 169 166 174 175 155 147 150 152 153 160 170 186 187 189 95 22 275 302 238 128 126 107 108 102 83 52 51 58 76 75 53 32 39 17 8 340 323 298 162 147 135 125 131 139 80 68 69 74 90 129 215 201 203 212 197 182 196 147 228 271 333 283 281 291 302 315 329 289 324 357 294 334 338 324 315 318 302 301 318 341 355 357 292 256
169 169 180 175 178 154 159 152 153 151 152 176 199 198 169 163 183 286 321 281 151 151 135 128 121 107 85 71 74 85 89 75 60 45 34 21 38 28 24 33 42 96 123 160 146 128 154 229 235 231 276 244 233 224 229 211 204 208 212 224 259 219 243 266 285 298 305 283 305 26 356 319 344 329 343 332 312 322 328 335 343 339 345 348 345